TimePST,TemperatureF,Dew PointF,Humidity,Sea Level PressureIn,VisibilityMPH,Wind Direction,Wind SpeedMPH,Gust SpeedMPH,PrecipitationIn,Events,Conditions,WindDirDegrees,DateUTC
12:15 AM,24.8,19.4,80,30.23,10.0,NE,3.5,-,0.00,,Partly Cloudy,40,2013-12-06 08:15:00
12:35 AM,26.6,17.6,69,30.23,10.0,NE,4.6,-,0.00,,Clear,50,2013-12-06 08:35:00
12:55 AM,26.6,17.6,69,30.23,10.0,NE,5.8,-,0.00,,Clear,40,2013-12-06 08:55:00
1:15 AM,26.6,17.6,69,30.22,10.0,NNE,4.6,-,0.00,,Clear,30,2013-12-06 09:15:00
1:35 AM,26.6,15.8,64,30.23,10.0,NE,5.8,-,0.00,,Clear,40,2013-12-06 09:35:00
1:55 AM,24.8,17.6,74,30.23,10.0,NE,3.5,-,0.00,,Mostly Cloudy,40,2013-12-06 09:55:00
2:55 AM,21.2,17.6,86,30.23,10.0,NNE,3.5,-,0.00,,Mostly Cloudy,20,2013-12-06 10:55:00
3:15 AM,21.2,17.6,86,30.23,10.0,Calm,Calm,-,0.00,,Scattered Clouds,0,2013-12-06 11:15:00
3:35 AM,21.2,19.4,93,30.23,10.0,Calm,Calm,-,0.00,,Clear,0,2013-12-06 11:35:00
4:15 AM,19.4,17.6,93,30.23,10.0,North,4.6,-,0.00,,Scattered Clouds,360,2013-12-06 12:15:00
4:35 AM,23.0,12.2,63,30.23,10.0,NE,6.9,-,0.00,,Clear,40,2013-12-06 12:35:00
4:55 AM,23.0,12.2,63,30.23,10.0,NE,5.8,-,0.00,,Scattered Clouds,40,2013-12-06 12:55:00
5:15 AM,23.0,14.0,68,30.23,10.0,NE,4.6,-,0.00,,Mostly Cloudy,50,2013-12-06 13:15:00
5:55 AM,23.0,12.2,63,30.23,10.0,NNE,9.2,-,0.00,,Partly Cloudy,30,2013-12-06 13:55:00
6:15 AM,23.0,12.2,63,30.23,10.0,NE,6.9,-,0.00,,Mostly Cloudy,40,2013-12-06 14:15:00
6:35 AM,23.0,12.2,63,30.24,10.0,NNE,6.9,-,0.00,,Partly Cloudy,30,2013-12-06 14:35:00
6:55 AM,23.0,12.2,63,30.24,10.0,NE,6.9,-,0.00,,Mostly Cloudy,40,2013-12-06 14:55:00
7:15 AM,23.0,12.2,63,30.24,10.0,NE,6.9,-,0.00,,Mostly Cloudy,40,2013-12-06 15:15:00
7:55 AM,23.0,10.4,59,30.24,10.0,NE,6.9,-,0.00,,Mostly Cloudy,40,2013-12-06 15:55:00
8:15 AM,23.0,10.4,59,30.24,10.0,NNE,6.9,-,0.00,,Mostly Cloudy,30,2013-12-06 16:15:00
8:35 AM,24.8,10.4,54,30.25,8.0,NNE,9.2,-,0.00,,Partly Cloudy,30,2013-12-06 16:35:00
9:15 AM,26.6,12.2,55,30.25,10.0,NE,5.8,-,0.00,,Clear,50,2013-12-06 17:15:00
9:35 AM,26.6,12.2,55,30.25,10.0,NNE,9.2,-,0.00,,Clear,30,2013-12-06 17:35:00
9:55 AM,28.4,10.4,47,30.25,9.0,NNE,9.2,-,0.00,,Clear,30,2013-12-06 17:55:00
10:15 AM,28.4,10.4,47,30.25,10.0,NNE,11.5,-,0.00,,Clear,20,2013-12-06 18:15:00
10:35 AM,28.4,10.4,47,30.25,10.0,NNE,9.2,-,0.00,,Clear,20,2013-12-06 18:35:00
10:55 AM,30.2,10.4,44,30.25,10.0,NNE,9.2,-,0.00,,Clear,30,2013-12-06 18:55:00
11:15 AM,30.2,10.4,44,30.24,4.0,NNE,9.2,-,0.00,,Clear,20,2013-12-06 19:15:00
11:35 AM,30.2,10.4,44,30.24,10.0,NNE,8.1,-,0.00,,Clear,20,2013-12-06 19:35:00
11:55 AM,32.0,10.4,41,30.24,10.0,NNE,8.1,-,0.00,,Clear,30,2013-12-06 19:55:00
12:15 PM,32.0,10.4,41,30.23,10.0,NNE,9.2,-,0.00,,Clear,20,2013-12-06 20:15:00
12:55 PM,32.0,10.4,41,30.22,10.0,NNE,6.9,-,0.00,,Clear,20,2013-12-06 20:55:00
1:15 PM,32.0,10.4,41,30.22,10.0,North,6.9,-,0.00,,Clear,10,2013-12-06 21:15:00
1:35 PM,32.0,8.6,38,30.21,10.0,NNE,9.2,-,0.00,,Clear,30,2013-12-06 21:35:00
1:55 PM,32.0,8.6,38,30.21,10.0,NNE,6.9,-,0.00,,Clear,30,2013-12-06 21:55:00
2:35 PM,32.0,10.4,41,30.21,7.0,North,8.1,-,0.00,,Clear,360,2013-12-06 22:35:00
2:55 PM,32.0,10.4,41,30.20,8.0,North,8.1,-,0.00,,Clear,10,2013-12-06 22:55:00
3:35 PM,30.2,10.4,44,30.21,10.0,North,10.4,-,0.00,,Clear,10,2013-12-06 23:35:00
3:55 PM,30.2,8.6,40,30.21,10.0,NNE,10.4,-,0.00,,Clear,30,2013-12-06 23:55:00
4:15 PM,28.4,8.6,43,30.22,10.0,NNE,9.2,-,0.00,,Clear,20,2013-12-07 00:15:00
4:35 PM,28.4,8.6,43,30.22,10.0,NNE,10.4,-,0.00,,Clear,30,2013-12-07 00:35:00
4:55 PM,26.6,8.6,47,30.22,10.0,NNE,8.1,-,0.00,,Clear,30,2013-12-07 00:55:00
5:15 PM,26.6,8.6,47,30.23,10.0,NE,9.2,-,0.00,,Clear,40,2013-12-07 01:15:00
6:35 PM,23.0,8.6,54,30.25,10.0,North,8.1,-,0.00,,Clear,360,2013-12-07 02:35:00
6:55 PM,23.0,6.8,50,30.25,10.0,North,8.1,-,0.00,,Clear,360,2013-12-07 02:55:00
7:15 PM,23.0,6.8,50,30.26,10.0,North,8.1,-,0.00,,Clear,360,2013-12-07 03:15:00
7:35 PM,23.0,6.8,50,30.26,10.0,North,8.1,-,0.00,,Clear,10,2013-12-07 03:35:00
7:55 PM,23.0,5.0,46,30.27,10.0,NNE,6.9,-,0.00,,Clear,20,2013-12-07 03:55:00
8:15 PM,23.0,5.0,46,30.27,10.0,North,9.2,-,0.00,,Clear,10,2013-12-07 04:15:00
9:15 PM,23.0,5.0,46,30.28,10.0,North,8.1,-,0.00,,Clear,10,2013-12-07 05:15:00
10:15 PM,23.0,5.0,46,30.29,10.0,North,10.4,-,0.00,,Clear,360,2013-12-07 06:15:00
10:55 PM,21.2,5.0,50,30.30,10.0,NNE,9.2,-,0.00,,Clear,20,2013-12-07 06:55:00
11:15 PM,21.2,5.0,50,30.30,10.0,North,10.4,-,0.00,,Clear,360,2013-12-07 07:15:00